TimeEET,TemperatureF,Dew PointF,Humidity,Sea Level PressureIn,VisibilityMPH,Wind Direction,Wind SpeedMPH,Gust SpeedMPH,PrecipitationIn,Events,Conditions,WindDirDegrees,DateUTC
12:20 AM,33.8,26.6,75,30.12,4.3,North,4.6,-,N/A,,Mostly Cloudy,360,2013-01-29 22:20:00
12:50 AM,35.6,26.6,70,30.12,6.2,North,4.6,-,N/A,,Scattered Clouds,350,2013-01-29 22:50:00
1:20 AM,35.6,26.6,70,30.12,6.2,NNW,6.9,-,N/A,,Scattered Clouds,340,2013-01-29 23:20:00
1:50 AM,35.6,26.6,70,30.09,6.2,NNW,6.9,-,N/A,,Scattered Clouds,340,2013-01-29 23:50:00
2:00 AM,35,26,58,30.12,6,NNW,6.9,,,,Partly Cloudy,340,2013-01-30 00:00:00
2:20 AM,33.8,26.6,75,30.09,6.2,North,6.9,-,N/A,,Scattered Clouds,350,2013-01-30 00:20:00
2:50 AM,32.0,26.6,80,30.09,6.2,NNW,5.8,-,N/A,,Scattered Clouds,340,2013-01-30 00:50:00
3:20 AM,32.0,26.6,80,30.06,6.2,NNW,4.6,-,N/A,,Scattered Clouds,340,2013-01-30 01:20:00
3:50 AM,32.0,28.4,87,30.06,6.2,NNW,6.9,-,N/A,,Scattered Clouds,330,2013-01-30 01:50:00
4:20 AM,33.8,28.4,81,30.06,6.2,NW,6.9,-,N/A,,Scattered Clouds,320,2013-01-30 02:20:00
4:50 AM,32.0,28.4,87,30.06,6.2,NNW,8.1,-,N/A,,Scattered Clouds,340,2013-01-30 02:50:00
5:20 AM,33.8,28.4,81,30.06,6.2,NNW,9.2,-,N/A,,Scattered Clouds,330,2013-01-30 03:20:00
5:50 AM,33.8,28.4,81,30.06,6.2,NNW,9.2,-,N/A,,Scattered Clouds,330,2013-01-30 03:50:00
6:20 AM,32.0,28.4,87,30.06,6.2,NNW,5.8,-,N/A,,Scattered Clouds,330,2013-01-30 04:20:00
6:50 AM,32.0,28.4,87,30.06,6.2,North,6.9,-,N/A,,Scattered Clouds,350,2013-01-30 04:50:00
7:20 AM,33.8,28.4,81,30.06,6.2,NNW,6.9,-,N/A,,Scattered Clouds,340,2013-01-30 05:20:00
7:50 AM,33.8,28.4,81,30.06,6.2,NNW,5.8,-,N/A,,Scattered Clouds,340,2013-01-30 05:50:00
8:00 AM,33,28,73,30.09,6,NNW,5.8,,,,Partly Cloudy,340,2013-01-30 06:00:00
8:20 AM,33.8,28.4,81,30.06,6.2,NNW,5.8,-,N/A,,Scattered Clouds,330,2013-01-30 06:20:00
8:50 AM,35.6,28.4,75,30.06,6.2,NNW,9.2,-,N/A,,Scattered Clouds,330,2013-01-30 06:50:00
9:20 AM,37.4,30.2,75,30.06,6.2,NNW,3.5,-,N/A,,Scattered Clouds,340,2013-01-30 07:20:00
9:50 AM,39.2,28.4,65,30.06,6.2,NW,4.6,-,N/A,,Scattered Clouds,320,2013-01-30 07:50:00
10:20 AM,41.0,28.4,61,30.06,6.2,NNW,3.5,-,N/A,,Scattered Clouds,330,2013-01-30 08:20:00
10:50 AM,41.0,28.4,61,30.06,6.2,West,3.5,-,N/A,,Scattered Clouds,270,2013-01-30 08:50:00
11:20 AM,41.0,26.6,57,30.06,6.2,SSW,3.5,-,N/A,,Scattered Clouds,200,2013-01-30 09:20:00
11:50 AM,41.0,28.4,61,30.04,6.2,SSW,6.9,-,N/A,,Scattered Clouds,210,2013-01-30 09:50:00
12:20 PM,41.0,28.4,61,30.04,6.2,SW,5.8,-,N/A,,Mostly Cloudy,230,2013-01-30 10:20:00
12:50 PM,41.0,28.4,61,30.04,6.2,SW,6.9,-,N/A,,Mostly Cloudy,230,2013-01-30 10:50:00
1:20 PM,41.0,28.4,61,30.04,6.2,WSW,6.9,-,N/A,,Mostly Cloudy,240,2013-01-30 11:20:00
1:50 PM,41.0,26.6,57,30.04,6.2,SW,5.8,-,N/A,,Mostly Cloudy,230,2013-01-30 11:50:00
2:00 PM,41,28,49,30.04,6,SW,5.8,,,,Partly Cloudy,230,2013-01-30 12:00:00
2:20 PM,41.0,28.4,61,30.01,6.2,WSW,5.8,-,N/A,,Mostly Cloudy,240,2013-01-30 12:20:00
2:50 PM,41.0,30.2,65,30.01,6.2,SW,4.6,-,N/A,,Mostly Cloudy,220,2013-01-30 12:50:00
3:20 PM,41.0,28.4,61,30.01,6.2,WSW,6.9,-,N/A,,Mostly Cloudy,250,2013-01-30 13:20:00
3:50 PM,41.0,28.4,61,30.01,6.2,West,4.6,-,N/A,,Mostly Cloudy,260,2013-01-30 13:50:00
4:20 PM,41.0,28.4,61,30.01,6.2,WNW,6.9,-,N/A,,Mostly Cloudy,300,2013-01-30 14:20:00
4:50 PM,41.0,30.2,65,30.01,6.2,WNW,6.9,-,N/A,,Mostly Cloudy,290,2013-01-30 14:50:00
5:20 PM,41.0,30.2,65,30.01,6.2,NW,5.8,-,N/A,,Mostly Cloudy,310,2013-01-30 15:20:00
5:50 PM,41.0,30.2,65,30.04,6.2,NW,8.1,-,N/A,,Mostly Cloudy,320,2013-01-30 15:50:00
6:20 PM,41.0,30.2,65,30.04,6.2,NNW,6.9,-,N/A,,Mostly Cloudy,330,2013-01-30 16:20:00
6:50 PM,39.2,30.2,70,30.04,6.2,NNW,6.9,-,N/A,,Mostly Cloudy,330,2013-01-30 16:50:00
7:20 PM,39.2,30.2,70,30.04,6.2,NNW,9.2,-,N/A,,Mostly Cloudy,340,2013-01-30 17:20:00
7:50 PM,39.2,30.2,70,30.04,6.2,North,8.1,-,N/A,,Mostly Cloudy,350,2013-01-30 17:50:00
8:00 PM,39,29,58,30.06,6,North,8.1,,,,Partly Cloudy,350,2013-01-30 18:00:00
8:20 PM,39.2,30.2,70,30.04,6.2,North,6.9,-,N/A,,Mostly Cloudy,350,2013-01-30 18:20:00
8:50 PM,39.2,32.0,75,30.04,6.2,North,6.9,-,N/A,,Mostly Cloudy,350,2013-01-30 18:50:00
9:20 PM,39.2,30.2,70,30.04,6.2,NNW,6.9,-,N/A,,Mostly Cloudy,340,2013-01-30 19:20:00
9:50 PM,37.4,28.4,70,30.04,6.2,North,4.6,-,N/A,,Mostly Cloudy,350,2013-01-30 19:50:00
10:20 PM,37.4,28.4,70,30.04,6.2,North,4.6,-,N/A,,Scattered Clouds,360,2013-01-30 20:20:00
10:50 PM,39.2,30.2,70,30.04,6.2,East,3.5,-,N/A,,Mostly Cloudy,80,2013-01-30 20:50:00
11:20 PM,39.2,28.4,65,30.04,6.2,Variable,2.3,-,N/A,,Scattered Clouds,0,2013-01-30 21:20:00
11:50 PM,37.4,28.4,70,30.04,6.2,NW,3.5,-,N/A,,Scattered Clouds,320,2013-01-30 21:50:00